Harvington, United Kingdom
Current Conditions -  °F | °C
As of 6:50 AM on Monday 24 Nov 2014 (Local Time) from EGBJ Reporting Station
Few Clouds Few Clouds  
Wind Chill: 32°   Ceiling: Unl
Heat Index: 32°   Visibility: 6mi
Dew Point: 32°   Wind: 0mph
Humidity: 100%   Direction: NA
Pressure: 30.3"   Gusts: NA
Location:  52.13°N, 1.92°W
Report Text: EGBJ 240650Z 00000KT 9999 FEW012 M00/M00 Q1026
Loading
Personal Weather Stations






























Interactive Weather Map New forecast layout! Learn more

10-Day Weather Forecast

Advertisements
Track Severe Weather on mobile